Tallahassee, FL

6:05 AM EDT on October 17, 2017 (GMT -0400)
Tallahassee Regional

Weather History for KTLH - February, 2014

Change the Weather History Date:

Thursday, February 27, 2014

  Actual Average Record
Temperature  
Mean Temperature 45 °F 57 °F  
Max Temperature 56 °F 70 °F 84 °F (1962)
Min Temperature 33 °F 44 °F 17 °F (1974)
Degree Days  
Heating Degree Days 20    
Month to date heating degree days 209  
Since 1 July heating degree days 1125  
Cooling Degree Days 0    
Month to date cooling degree days 10  
Year to date cooling degree days 12  
Moisture  
Dew Point 25 °F    
Average Humidity 48    
Maximum Humidity 76    
Minimum Humidity 19    
Precipitation  
Precipitation 0.00 in 0.19 in 5.59 in (1964)
Month to date precipitation 4.38 4.67  
Year to date precipitation 8.05 9.01  
Sea Level Pressure  
Sea Level Pressure 29.98 in    
Wind  
Wind Speed 7 mph (NNW)    
Max Wind Speed 12 mph    
Max Gust Speed 28 mph    
Visibility 10 miles    
Events      
T = Trace of Precipitation, MM = Missing Value Source: NWS Daily Summary

Daily Weather History Graph

Daily Weather History Graph

Search for Another Location

Airport or City:

Trip Planner

Search our weather history database for the weather conditions in past years. The results will help you decide how hot, cold, wet, or windy it might be!

Date:

Astronomy

Feb. 27, 2014 Rise Set
Actual Time 7:05 AM EST 6:34 PM EST
Civil Twilight 6:41 AM EST 6:59 PM EST
Nautical Twilight 6:13 AM EST 7:26 PM EST
Astronomical Twilight 5:45 AM EST 7:54 PM EST
Moon 5:32 AM EST (2/27) 5:03 PM EST (2/27)
Length of Visible Light 12h 17m
Length of Day
11h 29m
Waning Crescent, 4% of the Moon is Illuminated
Feb 27
Waning Crescent
Mar 1
New
Mar 8
First Quarter
Mar 16
Full
Mar 23
Last Quarter

Hourly Weather History & Observations

Time (EST) Temp. Windchill Dew Point Humidity Pressure Visibility Wind Dir Wind Speed Gust Speed Precip Events Conditions
12:53 AM 46.0 °F 41.0 °F 35.1 °F 66% 29.94 in 10.0 mi NNW 10.4 mph - N/A   Overcast
1:53 AM 45.0 °F 39.7 °F 34.0 °F 65% 29.93 in 10.0 mi NNW 10.4 mph - N/A   Clear
2:53 AM 44.1 °F 40.1 °F 32.0 °F 63% 29.93 in 10.0 mi NW 6.9 mph - N/A   Clear
3:53 AM 44.1 °F 39.0 °F 30.9 °F 60% 29.92 in 10.0 mi NNW 9.2 mph - N/A   Clear
4:53 AM 43.0 °F 37.2 °F 30.9 °F 62% 29.93 in 10.0 mi NNW 10.4 mph - N/A   Clear
5:53 AM 42.1 °F 34.9 °F 28.9 °F 60% 29.96 in 10.0 mi NNW 13.8 mph - N/A   Clear
6:53 AM 41.0 °F 35.2 °F 28.9 °F 62% 29.98 in 10.0 mi NNW 9.2 mph - N/A   Clear
7:53 AM 39.9 °F 32.9 °F 21.9 °F 49% 30.01 in 10.0 mi North 11.5 mph - N/A   Clear
8:53 AM 42.1 °F 36.6 °F 21.0 °F 43% 30.03 in 10.0 mi NNW 9.2 mph - N/A   Scattered Clouds
9:53 AM 43.0 °F 36.4 °F 16.0 °F 34% 30.03 in 10.0 mi North 12.7 mph - N/A   Clear
10:53 AM 45.0 °F 42.6 °F 16.0 °F 31% 30.03 in 10.0 mi NW 4.6 mph - N/A   Scattered Clouds
11:53 AM 51.1 °F - 14.0 °F 23% 30.01 in 10.0 mi NNW 8.1 mph - N/A   Scattered Clouds
12:53 PM 52.0 °F - 12.0 °F 20% 29.99 in 10.0 mi NNE 8.1 mph - N/A   Mostly Cloudy
1:53 PM 55.0 °F - 14.0 °F 20% 29.97 in 10.0 mi NNW 9.2 mph - N/A   Mostly Cloudy
2:53 PM 55.0 °F - 15.1 °F 21% 29.96 in 10.0 mi North 8.1 mph - N/A   Mostly Cloudy
3:53 PM 55.9 °F - 18.0 °F 23% 29.94 in 10.0 mi WNW 6.9 mph - N/A   Mostly Cloudy
4:53 PM 55.0 °F - 19.0 °F 24% 29.95 in 10.0 mi NW 5.8 mph - N/A   Mostly Cloudy
5:53 PM 53.1 °F - 23.0 °F 31% 29.96 in 10.0 mi NW 4.6 mph - N/A   Mostly Cloudy
6:53 PM 50.0 °F - 26.1 °F 39% 29.96 in 10.0 mi NW 4.6 mph - N/A   Mostly Cloudy
7:53 PM 46.0 °F - 28.9 °F 51% 29.99 in 10.0 mi Calm Calm - N/A   Mostly Cloudy
8:53 PM 41.0 °F - 32.0 °F 70% 30.00 in 10.0 mi Calm Calm - N/A   Mostly Cloudy
9:53 PM 37.0 °F - 30.0 °F 76% 30.03 in 10.0 mi Calm Calm - N/A   Scattered Clouds
10:53 PM 35.1 °F - 28.9 °F 78% 30.03 in 10.0 mi Calm Calm - N/A   Scattered Clouds
11:53 PM 34.0 °F - 28.0 °F 79% 30.03 in 10.0 mi Calm Calm - N/A   Clear